Regional Weather Roundup
Issued by NWS

Home | Current Version | Previous Version | Graphics & Text | Print | Product List | Glossary On
Versions: 1 2 3 4 5 6 7 8 9 10 11 12 13 14 15 16 17 18 19 20 21 22 23 24 25 26 27 28 29 30 31 32 33 34 35 36 37 38 39 40 41 42 43 44 45 46 47 48 49 50
000
ASUS45 KBOU 280007
RWRCO

WEATHER ROUNDUP FOR COLORADO
NATIONAL WEATHER SERVICE DENVER/BOULDER CO
500 PM MST TUE JAN 27 2015

NOTE: "FAIR" INDICATES FEW OR NO CLOUDS BELOW 12000 FEET WITH NO
SIGNIFICANT WEATHER AND/OR OBSTRUCTIONS TO VISIBILITY.

COZ001>005-013-030-031-280100-
...NORTHWEST COLORADO...

CITY           SKY/WX    TMP DP  RH WIND       PRES   REMARKS
CRAIG          CLOUDY    37  29  72 CALM      30.21F
HAYDEN         CLOUDY    39  21  48 CALM      30.22S
MEEKER         CLOUDY    45  28  51 SW5       30.21F
MOUNT WERNER   NOT AVBL
STEAMBOAT SPGS MOCLDY    37  24  59 E3        30.22S
WALDEN         PTCLDY    41  25  52 E5        30.21F
$$

COZ006>008-011-280100-
...WEST CENTRAL VALLEYS...

CITY           SKY/WX    TMP DP  RH WIND       PRES   REMARKS
GRAND JUNCTION PTCLDY    49  29  46 NW5       30.23F
MONTROSE       CLOUDY    50  25  37 N5        30.25S
EAGLE          PTCLDY    46  25  42 CALM      30.23S
RIFLE          CLOUDY    48  27  44 SW8       30.22S
DELTA          NOT AVBL
NUCLA          CLOUDY    54  32  43 CALM      30.29S
$$

COZ017>023-064>068-280100-
...SOUTHWEST COLORADO...

CITY           SKY/WX    TMP DP  RH WIND       PRES   REMARKS
DURANGO        PTCLDY    48  29  47 NE5       30.28F
CORTEZ         CLEAR     54  34  46 NW5       30.26F
PAGOSA SPRINGS CLOUDY    47  26  43 SW7       30.31
TELLURIDE      NOT AVBL
WOLF CREEK PAS NOT AVBL
$$

COZ009-010-012-014-032>034-037-058>063-280100-
...CENTRAL COLORADO...

CITY           SKY/WX    TMP DP  RH WIND       PRES   REMARKS
ASPEN          PTCLDY    42  22  44 N6        30.23S
BUENA VISTA    CLEAR     45  21  38 S5        30.21S
COPPER MTN     CLEAR     37  12  35 W15G21    30.38S
BERTHOUD PASS  FAIR      28  23  80 MISG      30.41F
COTTONWOOD PAS CLEAR     50   9  18 CALM      30.29S
GUNNISON       PTCLDY    25  16  68 S3        30.32F
KREMMLING      CLEAR     28  19  69 CALM      30.27F
LEADVILLE      CLEAR     42  12  29 NW8       30.27F
MONARCH PASS   CLEAR     34  10  37 W21       30.48S WCI  22
SALIDA         CLEAR     50  18  27 SW12G20   30.27S
SUNLIGHT       CLOUDY    34  23  64 CALM      30.36F
WILKERSON PASS CLEAR     39  16  38 SW7       30.36F
$$

COZ069>075-280100-
...SAN LUIS VALLEY/SANGRE DE CRISTO MOUNTAINS...

CITY           SKY/WX    TMP DP  RH WIND       PRES   REMARKS
ALAMOSA        CLEAR     49  22  34 S5        30.24F
LA VETA PASS   NOT AVBL
SAGUACHE       PTCLDY    37  27  65 CALM      30.28F
$$

COZ035-036-038>040-280100-
...NORTHERN COLORADO FRONT RANGE...

CITY           SKY/WX    TMP DP  RH WIND       PRES   REMARKS
DENVER INTL AP PTCLDY    58  34  40 E9        30.01F
DMNS CITY PARK   N/A     63  27  25 NE5       30.01S
AURORA         PTCLDY    59  37  43 NE6       30.03S
FRONT RANGE AP NOT AVBL
ERIE MUNI ARPT CLEAR     60  24  25 CALM      30.01F
BOULDER MUN AP CLEAR     63  21  20 NW3       30.03S
CENTENNIAL     PTCLDY    65  26  23 N6        30.03S
BROOMFIELD     PTCLDY    64  25  22 N12       30.04F
FORT COLLINS   CLEAR     63  27  25 S3        30.02F
LONGMONT       CLEAR     63  24  22 N3        30.04R
$$

COZ041-046-047-076>085-087-088-280100-
...PIKES PEAK/PALMER DIVIDE AND SOUTHERN FOOTHILLS...

CITY           SKY/WX    TMP DP  RH WIND       PRES   REMARKS
COLO. SPRINGS  PTCLDY    58  25  28 SE9       30.08F
A. F. ACADEMY  CLEAR     60  23  23 S3        30.09F
ELLICOTT       CLEAR    N/A N/A N/A S12       30.07F
FALCON         CLEAR     55  24  31 CALM      30.12F
FORT CARSON    CLEAR     63  20  19 SW10      30.04F
LIMON          CLEAR     57  21  24 S9        30.04S
MONUMENT HILL  CLEAR     50  27  40 S12       30.11S
TRINIDAD       CLEAR     63  32  31 E3        30.09F
$$

COZ042>045-048>051-090-091-280100-
...NORTHEAST COLORADO...

CITY           SKY/WX    TMP DP  RH WIND       PRES   REMARKS
GREELEY ARPT   PTCLDY    61  27  27 CALM      29.98F
AKRON          PTCLDY    57  32  38 E8        29.99F
BURLINGTON     MOCLDY    59  32  36 S13       30.00F
WRAY           PTCLDY    69  24  18 E5        29.96F
STERLING       PTCLDY    61  36  39 CALM      29.95F
HOLYOKE        PTCLDY    59  28  31 CALM      29.97S
FORT MORGAN    PTCLDY    59  29  32 NE5       29.99F
$$

COZ086-089-092>099-280100-
...SOUTHEAST COLORADO...

CITY           SKY/WX    TMP DP  RH WIND       PRES   REMARKS
PUEBLO         CLEAR     66  19  16 SE6       30.00F
LA JUNTA       CLEAR     66  34  30 S8        30.00F
LAMAR          PTCLDY    63  34  33 SE7       29.98F
SPRINGFIELD    NOT AVBL
$$



USA.gov is the U.S. government's official web portal to all federal, state and local government web resources and services.